Location: Oberkirch
(48.5323°N, 8.0787°E)
Time: 16:44:20
(UTC+00:00)

S-56A Canister/Altair - Visible Passes

Search period start: 16 February 2026 00:00
Search period end: 26 February 2026 00:00
Orbit: 632 x 2485 km, 38.9° (Epoch: 16 February)

Date Brightness Start Highest point End Pass type
(mag) Time Alt. Az. Time Alt. Az. Time Alt. Az.
16 Feb 10.2 02:03:46 32° SE 02:03:46 32° SE 02:10:10 10° ESE visible
16 Feb 9.7 04:01:01 34° SW 04:03:33 38° SSW 04:15:12 10° SE visible
16 Feb 10.7 06:00:09 10° WSW 06:07:43 20° SW 06:16:41 10° S visible
17 Feb 10.7 01:30:50 21° ESE 01:30:50 21° ESE 01:34:20 10° ESE visible
17 Feb 9.6 03:28:05 39° SSW 03:28:19 39° SSW 03:39:33 10° SE visible
17 Feb 10.5 05:25:21 11° WSW 05:32:27 22° SSW 05:41:44 10° S visible
18 Feb 11.1 00:57:56 12° ESE 00:57:56 12° ESE 00:58:32 10° ESE visible
18 Feb 9.8 02:55:13 37° SSE 02:55:13 37° SSE 03:03:52 10° SE visible
18 Feb 10.3 04:52:28 17° WSW 04:57:13 24° SSW 05:06:37 10° SSE visible
19 Feb 10.2 02:22:22 28° SE 02:22:22 28° SE 02:28:10 10° SE visible
19 Feb 10.1 04:19:38 23° SW 04:22:01 25° SSW 04:31:23 10° SSE visible
20 Feb 10.7 01:49:36 19° SE 01:49:36 19° SE 01:52:28 10° ESE visible
20 Feb 10.0 03:46:52 26° SSW 03:46:52 26° SSW 03:56:05 10° SSE visible
21 Feb 10.2 03:14:09 25° S 03:14:09 25° S 03:20:42 10° SSE visible
21 Feb 10.7 05:12:49 10° SW 05:15:27 11° SW 05:18:17 10° SSW visible
22 Feb 10.5 02:41:28 20° SSE 02:41:28 20° SSE 02:45:16 10° SSE visible
22 Feb 10.6 04:38:45 12° SW 04:40:21 12° SW 04:44:22 10° SSW visible
23 Feb 10.9 02:08:51 13° SSE 02:08:51 13° SSE 02:09:50 10° SE visible
23 Feb 10.6 04:06:08 13° SSW 04:06:08 13° SSW 04:09:57 10° S visible
24 Feb 10.8 03:33:34 12° S 03:33:34 12° S 03:35:16 10° S visible
